Lid_Strength_Index
3 3 3 3 3 3 4 5 5 5 4 4 3 3 3 3 2 4 7 4 2 -2 -2 2 3 4 5 7 6 6 11 12 12 11 10 7 7 5 5 7 5 6 6 6 5
3 3 3 3 3 3 4 4 5 4 4 3 3 3 3 2 5 7 3 -2 -3 -2 1 4 5 4 8 8 7 9 11 11 9 9 9 9 8 7 7 7 7 6 5 4 5
4 4 3 3 3 4 4 4 5 4 4 3 2 2 2 3 6 5 -2 -2 -2 -2 3 3 4 5 9 8 8 8 11 9 8 8 8 9 9 8 9 10 8 7 7 6 6
4 4 4 3 3 3 4 4 4 4 4 3 3 2 2 4 10 3 -2 -2 -2 1 3 5 6 8 9 10 7 10 8 7 8 6 7 9 8 8 9 9 7 7 7 7 7
4 4 4 4 4 3 3 4 4 4 4 4 3 2 4 7 6 0 -1 -2 0 3 5 7 8 7 10 8 8 9 7 6 6 6 7 6 7 8 8 7 6 6 6 7 7
3 3 4 4 4 4 3 4 4 5 5 4 3 2 5 8 1 -0 0 1 2 5 7 7 5 5 7 8 9 7 7 7 7 7 8 7 7 7 6 5 5 6 5 6 5
2 2 3 3 3 3 3 4 4 5 5 4 3 3 6 7 2 1 3 5 4 5 6 4 3 5 6 8 6 7 9 8 7 8 8 7 9 8 5 5 6 6 6 5 5
2 2 3 3 3 3 3 4 4 5 5 5 4 4 7 2 2 3 3 3 2 4 5 3 3 5 7 6 7 9 9 12 9 7 7 8 11 7 6 6 6 6 5 5 5
2 2 2 3 3 4 4 5 4 4 4 4 6 7 7 1 4 3 2 2 3 3 3 1 4 6 6 10 11 11 14 13 10 8 8 9 11 7 6 6 7 6 6 5 6
2 2 3 2 3 4 5 4 4 4 5 4 5 8 4 5 4 3 1 2 4 4 4 5 7 9 10 11 15 12 13 12 11 9 8 10 10 8 7 7 7 7 6 6 6
2 2 2 3 3 4 5 7 7 7 6 8 7 7 5 2 3 3 1 3 4 6 9 8 11 12 10 9 9 10 11 11 10 8 9 10 10 9 8 8 8 8 7 6 6
2 2 2 3 4 4 6 8 6 6 8 5 5 6 4 2 5 4 2 5 6 9 7 9 12 8 7 7 8 9 11 12 10 8 10 10 10 9 8 7 7 7 6 6 6
2 2 2 3 4 6 7 6 4 4 9 6 4 5 5 5 5 5 3 5 7 8 8 10 8 7 7 9 9 10 11 11 11 9 9 10 11 10 7 7 7 7 6 6 6
2 2 2 3 5 3 5 3 3 4 11 8 7 5 5 6 8 3 3 4 6 8 8 9 7 7 9 9 9 12 8 9 10 11 14 9 16 11 9 9 8 8 7 7 6
2 2 3 3 6 5 4 3 4 4 20 8 7 3 5 8 6 6 4 5 8 8 8 9 9 9 9 9 8 10 7 8 9 12 12 11 14 12 9 10 9 8 7 7 7
2 2 3 4 5 3 2 3 4 12 19 9 6 7 8 7 7 6 6 5 5 7 8 8 6 7 8 7 7 7 9 9 10 12 16 12 13 13 11 10 9 8 8 7 6
2 3 4 3 4 1 2 5 12 17 8 9 9 8 8 8 7 7 8 10 12 13 11 9 9 7 6 8 8 9 12 17 18 18 18 11 14 12 9 9 9 9 8 7 7
2 4 4 3 2 1 3 9 16 11 10 7 7 7 9 8 8 8 8 10 9 10 12 13 14 8 7 8 10 10 11 16 22 20 17 11 16 12 9 8 8 7 8 8 8
3 3 2 1 1 2 7 14 13 10 8 8 8 9 9 8 8 8 9 9 8 9 13 14 13 7 7 7 8 10 13 10 14 14 17 14 12 10 8 9 8 8 8 8 8
5 5 3 1 0 3 10 12 10 6 7 7 10 9 11 10 10 10 10 8 9 7 8 10 14 9 8 7 7 9 8 15 14 20 21 15 13 14 11 10 9 10 10 10 8
5 6 3 1 1 7 13 11 8 6 6 8 9 10 10 10 10 10 11 9 7 8 8 10 12 12 9 11 12 11 12 12 12 15 20 21 15 9 11 10 11 10 9 9 8
5 9 2 1 8 8 11 8 8 6 5 6 7 8 9 9 10 11 11 9 6 7 10 10 12 16 13 8 7 9 11 11 17 17 15 16 16 8 8 9 9 10 9 9 8
7 6 2 2 11 10 8 8 6 7 7 7 8 7 8 10 12 9 9 6 6 8 10 10 14 18 15 12 9 11 10 10 12 13 16 19 17 7 8 8 8 9 7 7 7
6 10 6 5 6 8 9 9 8 6 6 6 7 7 9 10 9 11 10 7 6 7 6 7 12 15 18 15 12 14 12 10 11 16 14 14 13 10 9 8 7 8 8 8 8
5 8 6 10 8 8 8 8 9 9 7 7 8 8 10 13 11 11 10 9 7 6 8 10 14 13 11 10 11 12 12 12 12 12 14 13 12 10 9 9 8 8 8 7 7
7 8 6 8 7 8 8 9 9 8 8 9 10 9 9 12 11 12 10 11 11 9 11 10 15 13 13 10 11 12 10 11 11 11 11 10 11 9 8 8 8 8 7 7 7
3 3 6 8 8 9 9 8 8 8 7 7 8 9 10 9 8 8 7 8 9 11 11 12 13 15 17 12 12 16 11 10 10 9 9 12 10 9 10 9 8 8 8 8 8